Date,TemperatureHighF,TemperatureAvgF,TemperatureLowF,DewpointHighF,DewpointAvgF,DewpointLowF,HumidityHigh,HumidityAvg,HumidityLow,PressureMaxIn,PressureMinIn,WindSpeedMaxMPH,WindSpeedAvgMPH,GustSpeedMaxMPH,PrecipitationSumIn
2013-1-1,31.3,24.3,10.7,27.5,16.1,2.8,92,71,56,29.93,29.72,17,4,17,0.00
2013-1-2,22.2,11.6,1.3,15.9,5.8,-4.5,91,77,62,30.16,29.91,13,2,13,0.00
2013-1-3,16.4,6.5,-3.6,8.5,-1.1,-8.8,86,71,43,30.18,30.04,9,2,9,0.00
2013-1-4,34.2,24.0,9.0,24.0,18.0,6.4,94,79,63,30.04,29.84,21,3,21,0.00
2013-1-5,34.0,28.1,16.0,24.9,20.4,12.5,89,73,54,30.26,29.85,12,3,12,0.01
2013-1-6,35.9,27.1,17.3,29.1,23.6,13.8,94,87,73,30.21,29.96,12,1,12,0.00
2013-1-7,31.9,24.4,10.7,29.6,19.2,8.0,94,81,56,30.40,29.99,10,1,10,0.00
2013-1-8,39.1,25.4,9.0,28.0,20.8,6.5,95,83,59,30.40,30.30,9,1,9,0.03
2013-1-9,39.2,28.9,21.1,30.4,24.5,18.8,95,84,65,30.40,30.04,15,3,15,0.05
2013-1-10,39.2,34.9,29.4,30.4,25.1,22.9,82,67,55,30.54,30.07,18,5,18,0.03
2013-1-11,36.2,29.7,21.8,31.5,25.7,19.3,97,85,63,30.54,30.21,6,1,6,0.07
2013-1-12,39.7,35.2,32.2,39.1,34.6,31.4,98,97,97,30.22,30.13,4,0,4,0.29
2013-1-13,43.5,38.4,34.2,43.0,37.9,33.7,99,98,98,30.16,30.00,9,1,9,0.06
2013-1-14,47.2,39.6,32.3,44.3,36.7,26.5,99,90,69,30.27,29.88,12,2,12,0.02
2013-1-15,34.4,30.7,26.5,28.7,24.8,23.0,89,79,66,30.34,30.22,5,1,5,0.00
2013-1-16,28.3,28.0,27.5,25.5,24.8,23.5,89,87,84,30.25,30.21,0,0,0,0.00
2013-1-18,17.5,12.5,7.2,9.2,1.9,-1.7,85,63,44,30.44,30.24,15,2,15,0.00
2013-1-19,39.7,29.4,16.2,29.0,20.4,8.8,87,69,54,30.37,29.86,13,3,13,0.07
2013-1-20,41.4,32.8,21.5,31.7,24.0,11.5,87,71,45,29.93,29.56,14,5,14,0.06
2013-1-21,22.0,17.6,10.5,16.1,9.2,3.4,93,70,55,30.06,29.81,13,2,13,0.00
2013-1-22,17.2,12.3,3.8,12.8,5.6,-4.1,93,75,49,30.08,29.78,12,2,12,0.00
2013-1-23,8.1,3.2,-3.7,-0.6,-7.9,-11.5,84,60,41,30.16,30.07,12,3,12,0.00
2013-1-24,12.3,3.0,-7.4,-4.3,-9.0,-12.8,79,58,40,30.28,30.13,14,4,14,0.00
2013-1-25,16.1,8.7,0.5,9.5,-4.4,-9.5,92,56,33,30.35,30.09,9,2,9,0.00
2013-1-26,16.6,10.3,5.4,7.5,0.9,-6.3,86,67,39,30.28,30.04,12,4,12,0.00
2013-1-27,23.0,13.4,6.4,6.0,2.3,-0.3,80,63,37,30.51,30.27,12,3,12,0.00
2013-1-28,22.5,17.3,6.3,20.6,13.3,1.4,94,84,60,30.50,30.04,6,1,6,0.00
2013-1-29,31.9,27.0,20.9,30.5,25.4,19.3,97,94,90,30.20,30.05,4,0,4,0.05
2013-1-30,50.4,40.8,31.4,50.1,40.2,30.6,99,98,97,30.14,29.41,14,2,14,0.46
2013-1-31,56.2,39.5,24.4,55.9,34.4,15.9,99,82,60,29.56,28.92,20,7,20,1.02